sat.trackr.live / text

‹ back to catalog

HEAD-1

NORAD 43011 · 2017-072B

PAYLOAD ACTIVE UNKNOWN

§ Identity

Operator
Country
PRC
Launch date
2017-11-14
Launch site
TAISC
Launch vehicle
Mass (kg)
RCS (m²)

External: N2YO · Heavens-Above · Gunter

§ Orbital elements

Epoch: 2026-05-25T04:47:38.818176Z

Period
100.79 min
Inclination
98.9563°
Eccentricity
0.0009187
Mean motion
14.28781002 rev/d
Perigee alt
789.2 km
Apogee alt
802.4 km
Semi-major
7,173.9 km
B*
1.0857e-4
RAAN
163.0930°
Arg perigee
215.7148°
Mean anomaly
144.3419°
Rev number
44,407

§ Raw data

HEAD-11 43011U 17072B   26145.19975484  .00000227  00000+0  10857-3 0  99952 43011  98.9563 163.0930 0009187 215.7148 144.3419 14.28781002444074

JSON: /api/v1/satellites/43011 · /tle

For live sub-satellite position, see the globe view (requires WebGL).

§ Visibility from observer

Set your observer location to see the next 7 days of passes ≥ 10°. The values pass through the URL so the page stays shareable.

No JS? Fill the form by hand. The geolocation button needs JavaScript.